This demonstration page uses our WeatherBlox Daily Observations layout. Learn more.

Left ArrowRight Arrow

Hourly Observations for May 14, 2020

Temp ( °F °C ) Dew Point ( °F °C ) Humidity (%) Winds ( mph kmh ) Pressure ( in mb ) Visibility ( mi km ) Precip ( " mm )
12:53 am 00:53 Mostly Cloudy 53 11.7 51 10.6 93 93 NNE 3 6 30.01 1016 10 16 0.00 0.00
1:53 am 01:53 Cloudy 53 11.7 51 10.6 93 93 Calm 30.01 1016 10 16 0.00 0.00
2:53 am 02:53 Cloudy 53 11.7 51 10.6 93 93 Calm 30.02 1017 10 16 0.00 0.00
3:53 am 03:53 Cloudy 53 11.7 51 10.6 93 93 Calm 30.01 1016 10 16 0.00 0.00
4:53 am 04:53 Cloudy 53 11.7 51 10.6 93 93 Calm 30.01 1016 10 16 0.00 0.00
5:53 am 05:53 Cloudy 53 11.7 51 10.6 93 93 Calm 30.03 1017 10 16 0.00 0.00
6:07 am 06:07 Cloudy 53 11.7 51 10.6 93 93 Calm 30.03 1017 10 16 0.00 0.00
6:31 am 06:31 Cloudy 53 11.7 51 10.6 93 93 Calm 30.04 1017 10 16 0.00 0.00
6:53 am 06:53 Cloudy 54 12.2 51 10.6 90 90 Calm 30.04 1017 10 16 0.00 0.00
7:21 am 07:21 Cloudy 54 12.2 52 11.1 93 93 S 5 7 30.04 1017 10 16 0.00 0.00
7:53 am 07:53 Cloudy 55 12.8 52 11.1 90 90 S 10 17 30.05 1018 10 16 0.00 0.00
8:53 am 08:53 Mostly Cloudy 57 13.9 52 11.1 83 83 S 10 17 30.06 1018 10 16 0.00 0.00
9:07 am 09:07 Mostly Cloudy 57 13.9 52 11.1 83 83 S 14 22 30.06 1018 10 16 0.00 0.00
9:53 am 09:53 Cloudy 58 14.4 51 10.6 78 78 S 12 19 30.06 1018 10 16 0.00 0.00
10:53 am 10:53 Cloudy 61 16.1 50 10 67 67 S 10 17 30.06 1018 10 16 0.00 0.00
11:53 am 11:53 Cloudy 63 17.2 50 10 63 63 SSW 12 19 30.05 1018 10 16 0.00 0.00
12:53 pm 12:53 Cloudy with Light Rain 63 17.2 51 10.6 65 65 WSW 5 7 30.04 1017 10 16 0.00 0.00
1:53 pm 13:53 Cloudy 62 16.7 53 11.7 73 73 NW 8 13 30.04 1017 10 16 0.00 0.00
2:53 pm 14:53 Cloudy 65 18.3 51 10.6 61 61 VRB 7 11 30.05 1018 10 16 0.00 0.00
3:53 pm 15:53 Cloudy with Light Rain 58 14.4 54 12.2 87 87 NNW 5 7 30.02 1017 10 16 0.05 1.27
4:53 pm 16:53 Cloudy with Light Rain 60 15.6 56 13.3 86 86 NNW 3 6 30.04 1017 10 16 0.12 3.05
5:53 pm 17:53 Mostly Cloudy 63 17.2 56 13.3 78 78 ENE 6 9 30.04 1017 10 16 0.00 0.00
6:53 pm 18:53 Cloudy 60 15.6 56 13.3 86 86 E 9 15 30.03 1017 10 16 0.00 0.00
7:53 pm 19:53 Cloudy 59 15 54 12.2 83 83 NE 3 6 30.04 1017 10 16 0.00 0.00
8:53 pm 20:53 Mostly Clear 58 14.4 55 12.8 90 90 N 3 6 30.04 1017 10 16 0.00 0.00
9:53 pm 21:53 Cloudy 58 14.4 55 12.8 90 90 NNE 5 7 30.06 1018 10 16 0.00 0.00
10:53 pm 22:53 Cloudy 58 14.4 55 12.8 90 90 Calm 30.07 1018 10 16 0.00 0.00
11:53 pm 23:53 Cloudy 57 13.9 55 12.8 93 93 Calm 30.08 1019 10 16 0.00 0.00

Powered by AerisWeather